User: anonymous   Login
Location: Unspecified
(0.0000°N, 0.0000°E)
Time: 02:10:43
(UTC+00:00)
Language:

STARLINK-11110 [DTC] - Orbit

View from above orbital plane
View from above orbital plane
View from above satellite
View from above satellite

Ground track
Ground track

The orbit is defined by the following mean orbital elements,

1 59762U          26145.39768637 +.00000000 +00000-0 +11858-4 0 00006
2 59762  53.1585 187.9394 0000802  97.3539 262.7570 15.69700871    08
Epoch (UTC): 25 May 2026 09:32:40
Eccentricity: 0.0000802
inclination: 53.1585°
perigee height: 359 km
apogee height: 360 km
right ascension of ascending node: 187.9394°
argument of perigee: 97.3539°
revolutions per day: 15.69700871
mean anomaly at epoch: 262.7570°

The dashed part of the orbit path shows where the satellite is in the earth's shadow,  

DLR